QPF
0.00 0.00 0.00 0.00 0.00 0.00 0.00 0.00 0.00 0.00 0.00 0.00 0.00 0.00 0.00 0.00 0.00 0.00 0.00 0.01 0.01 0.01 0.01 0.02 0.02 0.03 0.05 0.05 0.05 0.04 0.04 0.04 0.04 0.03 0.03 0.04 0.05 0.06 0.04 0.02 0.03 0.03 0.03 0.03 0.03 0.03 0.04 0.03 0.02
0.00 0.00 0.01 0.01 0.00 0.00 0.00 0.00 0.00 0.00 0.00 0.00 0.00 0.00 0.00 0.00 0.00 0.00 0.00 0.00 0.01 0.01 0.01 0.01 0.02 0.02 0.03 0.03 0.04 0.04 0.04 0.04 0.05 0.04 0.03 0.04 0.04 0.04 0.04 0.02 0.02 0.03 0.03 0.03 0.02 0.02 0.03 0.03 0.03
0.00 0.00 0.01 0.01 0.00 0.00 0.00 0.00 0.00 0.00 0.00 0.00 0.00 0.00 0.00 0.00 0.00 0.00 0.00 0.00 0.00 0.01 0.01 0.01 0.02 0.03 0.02 0.02 0.02 0.03 0.03 0.03 0.03 0.04 0.03 0.03 0.03 0.03 0.04 0.03 0.02 0.03 0.02 0.02 0.02 0.02 0.02 0.03 0.03
0.00 0.00 0.01 0.01 0.00 0.00 0.00 0.00 0.00 0.00 0.00 0.00 0.00 0.00 0.00 0.00 0.00 0.00 0.00 0.00 0.00 0.00 0.01 0.01 0.02 0.03 0.03 0.03 0.03 0.03 0.02 0.01 0.02 0.02 0.02 0.03 0.03 0.03 0.03 0.03 0.03 0.03 0.02 0.02 0.02 0.02 0.02 0.02 0.02
0.00 0.00 0.01 0.01 0.00 0.00 0.00 0.00 0.00 0.00 0.00 0.00 0.00 0.00 0.00 0.00 0.00 0.00 0.00 0.00 0.00 0.00 0.01 0.01 0.02 0.03 0.03 0.04 0.03 0.02 0.02 0.02 0.02 0.02 0.03 0.03 0.02 0.02 0.02 0.02 0.02 0.03 0.03 0.02 0.01 0.02 0.02 0.02 0.01
0.00 0.00 0.00 0.00 0.00 0.00 0.00 0.00 0.00 0.00 0.00 0.00 0.00 0.00 0.00 0.00 0.00 0.00 0.00 0.00 0.00 0.00 0.01 0.01 0.02 0.02 0.03 0.03 0.03 0.03 0.03 0.03 0.03 0.02 0.02 0.03 0.02 0.02 0.01 0.02 0.02 0.02 0.03 0.03 0.02 0.01 0.01 0.02 0.01
0.00 0.00 0.00 0.00 0.00 0.00 0.00 0.00 0.00 0.00 0.00 0.00 0.00 0.00 0.00 0.00 0.00 0.00 0.00 0.00 0.00 0.00 0.01 0.01 0.01 0.01 0.02 0.02 0.02 0.02 0.02 0.02 0.03 0.03 0.02 0.03 0.03 0.02 0.01 0.02 0.02 0.03 0.03 0.03 0.02 0.01 0.01 0.01 0.02
0.00 0.00 0.00 0.00 0.00 0.00 0.00 0.00 0.00 0.00 0.00 0.00 0.00 0.00 0.00 0.00 0.00 0.00 0.00 0.00 0.01 0.01 0.01 0.01 0.01 0.01 0.02 0.02 0.02 0.01 0.01 0.01 0.03 0.04 0.03 0.02 0.02 0.02 0.01 0.01 0.02 0.02 0.02 0.03 0.03 0.02 0.01 0.01 0.01
0.00 0.00 0.00 0.00 0.00 0.00 0.00 0.00 0.00 0.00 0.00 0.00 0.00 0.00 0.00 0.00 0.00 0.00 0.00 0.01 0.01 0.01 0.01 0.01 0.02 0.02 0.03 0.03 0.02 0.01 0.02 0.02 0.03 0.04 0.02 0.01 0.01 0.01 0.00 0.01 0.01 0.01 0.02 0.02 0.03 0.02 0.02 0.01 0.01
0.00 0.00 0.00 0.00 0.00 0.00 0.00 0.00 0.00 0.00 0.00 0.00 0.00 0.00 0.00 0.00 0.00 0.00 0.00 0.00 0.01 0.01 0.02 0.03 0.03 0.03 0.04 0.03 0.02 0.03 0.02 0.02 0.03 0.03 0.02 0.01 0.01 0.00 0.00 0.01 0.01 0.01 0.02 0.02 0.02 0.01 0.01 0.01 0.01
0.00 0.00 0.00 0.00 0.00 0.00 0.00 0.00 0.00 0.00 0.00 0.00 0.00 0.00 0.00 0.00 0.00 0.01 0.01 0.01 0.01 0.01 0.02 0.02 0.02 0.02 0.03 0.03 0.03 0.04 0.05 0.04 0.04 0.03 0.01 0.01 0.01 0.00 0.01 0.01 0.01 0.01 0.02 0.02 0.02 0.02 0.01 0.00 0.01
0.00 0.00 0.00 0.00 0.00 0.00 0.00 0.00 0.00 0.00 0.00 0.00 0.00 0.00 0.00 0.00 0.01 0.01 0.01 0.02 0.02 0.01 0.01 0.01 0.02 0.02 0.02 0.02 0.03 0.04 0.06 0.06 0.04 0.03 0.03 0.01 0.01 0.01 0.01 0.01 0.01 0.01 0.02 0.02 0.02 0.01 0.01 0.01 0.00
0.00 0.00 0.00 0.00 0.00 0.00 0.00 0.00 0.00 0.00 0.00 0.00 0.00 0.00 0.00 0.00 0.01 0.01 0.01 0.02 0.02 0.02 0.02 0.02 0.02 0.03 0.02 0.03 0.03 0.03 0.05 0.06 0.05 0.04 0.05 0.04 0.02 0.01 0.01 0.01 0.01 0.02 0.02 0.02 0.02 0.01 0.01 0.01 0.01
0.00 0.00 0.00 0.00 0.00 0.00 0.00 0.00 0.00 0.00 0.00 0.00 0.00 0.00 0.00 0.00 0.00 0.01 0.01 0.01 0.02 0.02 0.01 0.02 0.02 0.02 0.02 0.02 0.02 0.03 0.04 0.05 0.04 0.03 0.03 0.03 0.02 0.01 0.01 0.01 0.02 0.02 0.02 0.02 0.02 0.01 0.00 0.00 0.01
0.00 0.00 0.00 0.00 0.00 0.00 0.00 0.00 0.00 0.00 0.00 0.00 0.00 0.00 0.00 0.00 0.00 0.00 0.00 0.01 0.01 0.02 0.02 0.02 0.02 0.02 0.03 0.03 0.03 0.03 0.03 0.04 0.04 0.03 0.02 0.02 0.02 0.01 0.01 0.02 0.02 0.02 0.03 0.02 0.02 0.01 0.00 0.00 0.01
0.00 0.00 0.00 0.00 0.00 0.00 0.00 0.00 0.00 0.00 0.00 0.00 0.00 0.00 0.00 0.00 0.00 0.00 0.00 0.00 0.01 0.01 0.02 0.03 0.03 0.03 0.03 0.03 0.03 0.03 0.03 0.03 0.04 0.04 0.03 0.03 0.03 0.02 0.01 0.02 0.02 0.02 0.04 0.03 0.02 0.01 0.01 0.01 0.01
0.01 0.00 0.00 0.00 0.00 0.00 0.00 0.00 0.00 0.00 0.00 0.00 0.00 0.00 0.00 0.00 0.00 0.00 0.00 0.00 0.01 0.01 0.01 0.02 0.03 0.04 0.04 0.03 0.03 0.03 0.03 0.04 0.04 0.04 0.04 0.04 0.04 0.03 0.02 0.02 0.02 0.03 0.04 0.03 0.02 0.01 0.01 0.01 0.01
0.01 0.01 0.00 0.00 0.00 0.00 0.00 0.00 0.00 0.00 0.00 0.00 0.00 0.00 0.00 0.00 0.00 0.00 0.01 0.01 0.01 0.01 0.01 0.01 0.02 0.03 0.04 0.04 0.04 0.03 0.04 0.04 0.04 0.04 0.05 0.06 0.05 0.03 0.02 0.03 0.04 0.04 0.05 0.04 0.02 0.01 0.01 0.01 0.01
0.01 0.02 0.01 0.00 0.00 0.00 0.00 0.00 0.00 0.00 0.00 0.00 0.00 0.00 0.00 0.00 0.01 0.01 0.01 0.01 0.01 0.01 0.01 0.01 0.02 0.02 0.03 0.04 0.03 0.03 0.03 0.04 0.04 0.05 0.05 0.07 0.06 0.04 0.03 0.03 0.05 0.05 0.05 0.04 0.02 0.02 0.02 0.02 0.02
0.02 0.02 0.01 0.01 0.01 0.01 0.00 0.00 0.00 0.00 0.00 0.00 0.00 0.00 0.00 0.00 0.01 0.01 0.01 0.01 0.01 0.01 0.01 0.01 0.01 0.02 0.02 0.03 0.03 0.03 0.03 0.03 0.03 0.04 0.05 0.07 0.07 0.05 0.03 0.03 0.05 0.06 0.04 0.03 0.02 0.02 0.02 0.02 0.02
0.02 0.01 0.01 0.01 0.01 0.01 0.01 0.01 0.00 0.00 0.00 0.00 0.00 0.00 0.00 0.01 0.01 0.01 0.00 0.01 0.01 0.01 0.01 0.01 0.01 0.01 0.02 0.03 0.03 0.03 0.04 0.03 0.03 0.03 0.04 0.06 0.06 0.06 0.04 0.03 0.05 0.05 0.04 0.03 0.03 0.02 0.01 0.02 0.02
0.02 0.01 0.01 0.01 0.02 0.01 0.01 0.01 0.00 0.00 0.01 0.00 0.00 0.00 0.00 0.00 0.00 0.01 0.01 0.01 0.00 0.00 0.01 0.01 0.02 0.02 0.02 0.03 0.03 0.03 0.03 0.03 0.02 0.02 0.03 0.04 0.05 0.06 0.05 0.04 0.04 0.04 0.03 0.03 0.03 0.02 0.01 0.01 0.02
0.02 0.01 0.01 0.01 0.02 0.02 0.01 0.01 0.01 0.01 0.01 0.01 0.01 0.01 0.01 0.01 0.01 0.01 0.01 0.01 0.01 0.00 0.00 0.01 0.01 0.02 0.02 0.02 0.02 0.03 0.03 0.03 0.03 0.03 0.04 0.04 0.04 0.04 0.06 0.04 0.03 0.03 0.02 0.02 0.02 0.02 0.02 0.01 0.01
0.02 0.02 0.02 0.02 0.04 0.04 0.01 0.01 0.01 0.01 0.02 0.01 0.01 0.01 0.01 0.01 0.01 0.01 0.01 0.01 0.01 0.01 0.01 0.01 0.02 0.02 0.02 0.02 0.02 0.02 0.02 0.03 0.03 0.03 0.04 0.04 0.04 0.04 0.04 0.04 0.02 0.02 0.02 0.02 0.01 0.01 0.02 0.02 0.01
0.03 0.04 0.05 0.05 0.05 0.03 0.01 0.01 0.02 0.02 0.02 0.02 0.01 0.01 0.01 0.01 0.01 0.01 0.01 0.01 0.01 0.01 0.01 0.01 0.02 0.03 0.03 0.03 0.03 0.03 0.02 0.03 0.03 0.02 0.03 0.03 0.03 0.03 0.03 0.03 0.03 0.02 0.02 0.02 0.01 0.01 0.01 0.02 0.02
0.03 0.03 0.05 0.04 0.02 0.01 0.01 0.01 0.02 0.01 0.01 0.01 0.01 0.01 0.01 0.01 0.01 0.01 0.01 0.01 0.01 0.01 0.01 0.01 0.02 0.02 0.03 0.03 0.03 0.04 0.04 0.04 0.03 0.03 0.03 0.03 0.03 0.04 0.04 0.04 0.04 0.03 0.02 0.02 0.02 0.02 0.01 0.02 0.02
0.02 0.03 0.03 0.04 0.02 0.01 0.01 0.02 0.01 0.01 0.01 0.01 0.01 0.01 0.01 0.01 0.01 0.01 0.01 0.01 0.01 0.01 0.01 0.01 0.01 0.02 0.03 0.03 0.03 0.03 0.04 0.04 0.04 0.03 0.03 0.03 0.03 0.04 0.05 0.05 0.05 0.05 0.05 0.03 0.02 0.02 0.02 0.02 0.02
0.01 0.02 0.02 0.04 0.05 0.03 0.02 0.01 0.02 0.02 0.02 0.01 0.01 0.01 0.01 0.01 0.01 0.01 0.01 0.01 0.01 0.01 0.01 0.01 0.01 0.02 0.03 0.03 0.03 0.03 0.02 0.03 0.03 0.03 0.03 0.03 0.04 0.05 0.04 0.04 0.05 0.05 0.06 0.05 0.04 0.03 0.03 0.02 0.03
0.02 0.02 0.02 0.03 0.03 0.04 0.03 0.02 0.03 0.03 0.02 0.02 0.02 0.02 0.02 0.01 0.01 0.01 0.01 0.01 0.01 0.01 0.02 0.03 0.02 0.02 0.02 0.03 0.04 0.03 0.02 0.02 0.02 0.02 0.02 0.03 0.03 0.04 0.05 0.05 0.05 0.06 0.06 0.06 0.05 0.03 0.04 0.03 0.03
0.02 0.02 0.02 0.03 0.03 0.02 0.03 0.02 0.01 0.01 0.02 0.02 0.02 0.02 0.02 0.02 0.01 0.01 0.01 0.02 0.02 0.02 0.02 0.03 0.02 0.02 0.02 0.02 0.03 0.03 0.03 0.02 0.02 0.02 0.03 0.03 0.04 0.04 0.04 0.05 0.05 0.05 0.05 0.05 0.05 0.04 0.04 0.04 0.03
MSLP
1010.78 1011.61 1012.59 1013.57 1014.43 1015.06 1015.38 1015.40 1015.16 1014.76 1014.32 1013.94 1013.68 1013.57 1013.60 1013.71 1013.84 1013.93 1013.95 1013.89 1013.79 1013.69 1013.66 1013.73 1013.94 1014.28 1014.70 1015.17 1015.63 1016.04 1016.39 1016.66 1016.87 1017.05 1017.22 1017.39 1017.57 1017.74 1017.91 1018.05 1018.15 1018.22 1018.27 1018.29 1018.30 1018.31 1018.31 1018.30 1018.26
1011.14 1012.06 1013.07 1014.01 1014.77 1015.23 1015.36 1015.17 1014.73 1014.17 1013.61 1013.16 1012.88 1012.79 1012.87 1013.06 1013.28 1013.47 1013.59 1013.63 1013.62 1013.61 1013.65 1013.78 1014.03 1014.39 1014.83 1015.32 1015.81 1016.26 1016.65 1016.99 1017.28 1017.53 1017.75 1017.95 1018.14 1018.30 1018.42 1018.50 1018.54 1018.55 1018.55 1018.54 1018.54 1018.55 1018.57 1018.59 1018.59
1011.61 1012.56 1013.53 1014.37 1014.97 1015.23 1015.15 1014.77 1014.17 1013.50 1012.87 1012.41 1012.15 1012.11 1012.26 1012.53 1012.84 1013.12 1013.33 1013.47 1013.56 1013.64 1013.76 1013.95 1014.25 1014.62 1015.07 1015.55 1016.03 1016.49 1016.91 1017.28 1017.61 1017.92 1018.19 1018.43 1018.63 1018.77 1018.85 1018.88 1018.86 1018.81 1018.76 1018.72 1018.72 1018.74 1018.79 1018.85 1018.91
1012.17 1013.11 1013.98 1014.67 1015.08 1015.14 1014.87 1014.33 1013.64 1012.92 1012.31 1011.88 1011.69 1011.72 1011.93 1012.26 1012.62 1012.96 1013.25 1013.46 1013.64 1013.80 1014.00 1014.25 1014.58 1014.97 1015.40 1015.84 1016.28 1016.71 1017.11 1017.49 1017.85 1018.19 1018.50 1018.78 1019.00 1019.15 1019.22 1019.21 1019.15 1019.06 1018.98 1018.93 1018.92 1018.96 1019.05 1019.16 1019.26
1012.78 1013.65 1014.41 1014.93 1015.15 1015.04 1014.63 1014.02 1013.31 1012.63 1012.09 1011.76 1011.65 1011.76 1012.02 1012.37 1012.74 1013.09 1013.39 1013.65 1013.87 1014.10 1014.36 1014.67 1015.01 1015.39 1015.78 1016.17 1016.54 1016.90 1017.25 1017.61 1017.97 1018.33 1018.69 1019.01 1019.27 1019.45 1019.54 1019.54 1019.47 1019.37 1019.28 1019.23 1019.23 1019.29 1019.41 1019.56 1019.71
1013.36 1014.15 1014.77 1015.14 1015.21 1014.99 1014.54 1013.95 1013.33 1012.78 1012.38 1012.18 1012.18 1012.34 1012.61 1012.93 1013.25 1013.55 1013.80 1014.04 1014.27 1014.53 1014.82 1015.15 1015.50 1015.86 1016.20 1016.52 1016.81 1017.09 1017.37 1017.68 1018.03 1018.41 1018.80 1019.18 1019.50 1019.73 1019.87 1019.91 1019.88 1019.80 1019.73 1019.68 1019.70 1019.78 1019.92 1020.09 1020.25
1013.83 1014.52 1015.02 1015.28 1015.27 1015.04 1014.66 1014.20 1013.76 1013.42 1013.23 1013.20 1013.30 1013.49 1013.73 1013.96 1014.16 1014.32 1014.47 1014.62 1014.81 1015.05 1015.34 1015.68 1016.02 1016.35 1016.65 1016.89 1017.10 1017.30 1017.52 1017.79 1018.12 1018.51 1018.93 1019.36 1019.75 1020.06 1020.27 1020.38 1020.40 1020.37 1020.33 1020.31 1020.35 1020.44 1020.57 1020.73 1020.89
1014.12 1014.72 1015.13 1015.32 1015.33 1015.19 1014.97 1014.74 1014.58 1014.53 1014.59 1014.73 1014.93 1015.13 1015.28 1015.37 1015.40 1015.38 1015.36 1015.38 1015.47 1015.65 1015.91 1016.23 1016.55 1016.86 1017.11 1017.31 1017.46 1017.61 1017.78 1018.01 1018.32 1018.72 1019.17 1019.64 1020.09 1020.47 1020.75 1020.93 1021.02 1021.05 1021.06 1021.07 1021.12 1021.20 1021.33 1021.46 1021.58
1014.21 1014.71 1015.06 1015.26 1015.36 1015.40 1015.44 1015.54 1015.72 1015.99 1016.31 1016.64 1016.92 1017.10 1017.15 1017.07 1016.89 1016.65 1016.44 1016.29 1016.26 1016.35 1016.55 1016.82 1017.12 1017.40 1017.63 1017.80 1017.93 1018.04 1018.19 1018.41 1018.71 1019.10 1019.57 1020.06 1020.54 1020.97 1021.31 1021.55 1021.71 1021.79 1021.85 1021.89 1021.94 1022.02 1022.11 1022.20 1022.27
1014.11 1014.53 1014.86 1015.12 1015.37 1015.66 1016.03 1016.50 1017.05 1017.66 1018.25 1018.75 1019.09 1019.24 1019.18 1018.92 1018.53 1018.09 1017.68 1017.36 1017.19 1017.17 1017.29 1017.50 1017.76 1018.01 1018.23 1018.39 1018.52 1018.64 1018.79 1019.00 1019.30 1019.69 1020.14 1020.62 1021.10 1021.54 1021.90 1022.19 1022.39 1022.52 1022.61 1022.69 1022.75 1022.81 1022.86 1022.90 1022.91
1013.89 1014.24 1014.58 1014.96 1015.42 1016.00 1016.72 1017.56 1018.48 1019.41 1020.23 1020.88 1021.27 1021.39 1021.22 1020.82 1020.26 1019.65 1019.07 1018.61 1018.31 1018.18 1018.20 1018.34 1018.54 1018.75 1018.94 1019.11 1019.25 1019.39 1019.56 1019.79 1020.08 1020.45 1020.86 1021.30 1021.74 1022.15 1022.50 1022.78 1023.01 1023.18 1023.30 1023.40 1023.47 1023.52 1023.54 1023.53 1023.48
1013.65 1013.97 1014.36 1014.87 1015.56 1016.44 1017.50 1018.69 1019.94 1021.13 1022.14 1022.90 1023.33 1023.41 1023.17 1022.68 1022.02 1021.30 1020.62 1020.06 1019.66 1019.43 1019.35 1019.39 1019.50 1019.65 1019.80 1019.95 1020.10 1020.27 1020.46 1020.70 1020.99 1021.32 1021.68 1022.04 1022.41 1022.74 1023.05 1023.31 1023.54 1023.72 1023.88 1023.99 1024.07 1024.11 1024.11 1024.05 1023.95
1013.51 1013.82 1014.29 1014.96 1015.87 1017.03 1018.40 1019.88 1021.38 1022.76 1023.91 1024.73 1025.18 1025.25 1024.98 1024.46 1023.77 1023.03 1022.33 1021.73 1021.26 1020.95 1020.76 1020.68 1020.68 1020.72 1020.80 1020.91 1021.05 1021.22 1021.43 1021.67 1021.94 1022.23 1022.51 1022.79 1023.06 1023.31 1023.54 1023.76 1023.97 1024.17 1024.35 1024.49 1024.58 1024.61 1024.58 1024.49 1024.34
1013.55 1013.90 1014.46 1015.29 1016.43 1017.83 1019.44 1021.14 1022.81 1024.30 1025.51 1026.36 1026.81 1026.88 1026.62 1026.13 1025.50 1024.82 1024.17 1023.59 1023.11 1022.73 1022.44 1022.22 1022.07 1021.97 1021.93 1021.95 1022.04 1022.20 1022.40 1022.63 1022.88 1023.11 1023.32 1023.51 1023.67 1023.83 1023.98 1024.16 1024.35 1024.56 1024.75 1024.91 1025.02 1025.05 1024.99 1024.86 1024.68
1013.81 1014.21 1014.89 1015.89 1017.21 1018.81 1020.60 1022.45 1024.21 1025.76 1026.97 1027.81 1028.25 1028.33 1028.12 1027.71 1027.19 1026.63 1026.09 1025.59 1025.13 1024.71 1024.31 1023.95 1023.62 1023.35 1023.15 1023.05 1023.06 1023.15 1023.33 1023.53 1023.75 1023.93 1024.07 1024.17 1024.25 1024.32 1024.41 1024.54 1024.72 1024.93 1025.14 1025.32 1025.43 1025.45 1025.37 1025.21 1024.97
1014.21 1014.70 1015.50 1016.64 1018.13 1019.89 1021.81 1023.76 1025.57 1027.11 1028.30 1029.10 1029.52 1029.62 1029.48 1029.18 1028.81 1028.41 1028.01 1027.61 1027.20 1026.76 1026.28 1025.77 1025.26 1024.80 1024.43 1024.18 1024.07 1024.09 1024.20 1024.37 1024.54 1024.68 1024.76 1024.79 1024.79 1024.80 1024.84 1024.94 1025.11 1025.32 1025.55 1025.74 1025.85 1025.86 1025.75 1025.54 1025.26
1014.66 1015.23 1016.14 1017.42 1019.05 1020.94 1022.97 1024.97 1026.81 1028.34 1029.49 1030.26 1030.66 1030.79 1030.71 1030.53 1030.31 1030.07 1029.83 1029.55 1029.21 1028.76 1028.21 1027.58 1026.91 1026.27 1025.72 1025.32 1025.08 1025.00 1025.04 1025.15 1025.28 1025.37 1025.40 1025.38 1025.33 1025.29 1025.30 1025.38 1025.54 1025.76 1025.99 1026.18 1026.29 1026.28 1026.14 1025.88 1025.55
1015.01 1015.64 1016.65 1018.04 1019.79 1021.79 1023.91 1025.98 1027.85 1029.38 1030.52 1031.27 1031.68 1031.83 1031.82 1031.74 1031.65 1031.56 1031.46 1031.29 1031.01 1030.59 1030.01 1029.29 1028.50 1027.72 1027.02 1026.48 1026.11 1025.92 1025.88 1025.92 1025.99 1026.03 1026.02 1025.96 1025.87 1025.80 1025.79 1025.86 1026.01 1026.22 1026.45 1026.64 1026.73 1026.69 1026.52 1026.22 1025.85
1015.14 1015.79 1016.85 1018.32 1020.16 1022.27 1024.49 1026.65 1028.58 1030.16 1031.34 1032.11 1032.54 1032.73 1032.78 1032.78 1032.79 1032.82 1032.82 1032.76 1032.55 1032.17 1031.60 1030.85 1030.00 1029.13 1028.33 1027.67 1027.20 1026.91 1026.77 1026.73 1026.73 1026.70 1026.64 1026.53 1026.41 1026.31 1026.28 1026.33 1026.47 1026.68 1026.89 1027.06 1027.14 1027.08 1026.88 1026.56 1026.17
1014.96 1015.59 1016.65 1018.17 1020.09 1022.29 1024.63 1026.91 1028.96 1030.65 1031.91 1032.76 1033.26 1033.51 1033.61 1033.67 1033.73 1033.83 1033.91 1033.92 1033.79 1033.48 1032.95 1032.24 1031.39 1030.50 1029.65 1028.93 1028.37 1027.98 1027.74 1027.60 1027.51 1027.41 1027.28 1027.12 1026.95 1026.81 1026.75 1026.78 1026.89 1027.07 1027.27 1027.42 1027.47 1027.40 1027.19 1026.88 1026.50
1014.52 1015.06 1016.08 1017.59 1019.56 1021.86 1024.32 1026.75 1028.97 1030.82 1032.25 1033.23 1033.83 1034.15 1034.31 1034.40 1034.50 1034.62 1034.74 1034.81 1034.75 1034.52 1034.09 1033.46 1032.68 1031.83 1031.00 1030.24 1029.62 1029.15 1028.81 1028.56 1028.35 1028.15 1027.93 1027.69 1027.47 1027.29 1027.18 1027.17 1027.25 1027.39 1027.55 1027.67 1027.71 1027.64 1027.45 1027.16 1026.82
1013.93 1014.34 1015.28 1016.75 1018.73 1021.10 1023.69 1026.28 1028.70 1030.76 1032.38 1033.54 1034.28 1034.70 1034.92 1035.03 1035.14 1035.26 1035.40 1035.50 1035.51 1035.38 1035.06 1034.56 1033.89 1033.14 1032.35 1031.61 1030.95 1030.40 1029.95 1029.57 1029.23 1028.91 1028.59 1028.26 1027.97 1027.72 1027.56 1027.49 1027.52 1027.61 1027.73 1027.83 1027.85 1027.79 1027.63 1027.40 1027.12
1013.41 1013.68 1014.49 1015.89 1017.85 1020.26 1022.94 1025.69 1028.30 1030.57 1032.41 1033.77 1034.67 1035.21 1035.49 1035.63 1035.72 1035.83 1035.96 1036.09 1036.16 1036.12 1035.93 1035.57 1035.05 1034.40 1033.69 1032.97 1032.29 1031.66 1031.09 1030.59 1030.12 1029.67 1029.23 1028.82 1028.44 1028.13 1027.90 1027.78 1027.74 1027.78 1027.84 1027.90 1027.92 1027.87 1027.75 1027.58 1027.38
1013.20 1013.32 1014.01 1015.30 1017.20 1019.60 1022.33 1025.19 1027.95 1030.42 1032.46 1034.01 1035.07 1035.73 1036.07 1036.24 1036.32 1036.41 1036.53 1036.66 1036.78 1036.82 1036.74 1036.51 1036.12 1035.59 1034.95 1034.26 1033.54 1032.85 1032.18 1031.55 1030.95 1030.38 1029.85 1029.35 1028.90 1028.53 1028.24 1028.05 1027.95 1027.92 1027.93 1027.94 1027.93 1027.89 1027.80 1027.69 1027.57
1013.48 1013.49 1014.06 1015.24 1017.04 1019.38 1022.10 1024.99 1027.85 1030.44 1032.63 1034.33 1035.54 1036.30 1036.71 1036.90 1036.99 1037.05 1037.14 1037.27 1037.41 1037.50 1037.51 1037.38 1037.09 1036.64 1036.06 1035.37 1034.63 1033.86 1033.10 1032.37 1031.67 1031.01 1030.41 1029.85 1029.35 1028.93 1028.60 1028.35 1028.18 1028.07 1028.01 1027.96 1027.91 1027.86 1027.79 1027.72 1027.65
1014.37 1014.33 1014.80 1015.87 1017.55 1019.77 1022.40 1025.25 1028.09 1030.73 1033.00 1034.80 1036.10 1036.95 1037.42 1037.64 1037.72 1037.77 1037.83 1037.94 1038.07 1038.18 1038.22 1038.14 1037.90 1037.49 1036.93 1036.24 1035.46 1034.64 1033.80 1033.00 1032.23 1031.53 1030.88 1030.30 1029.79 1029.35 1028.98 1028.68 1028.44 1028.25 1028.11 1027.98 1027.88 1027.78 1027.70 1027.64 1027.61
1015.87 1015.83 1016.25 1017.22 1018.76 1020.82 1023.29 1026.00 1028.75 1031.33 1033.59 1035.42 1036.77 1037.67 1038.19 1038.44 1038.53 1038.55 1038.58 1038.65 1038.75 1038.83 1038.86 1038.77 1038.52 1038.10 1037.52 1036.80 1035.98 1035.11 1034.23 1033.39 1032.61 1031.89 1031.25 1030.69 1030.19 1029.75 1029.37 1029.02 1028.72 1028.45 1028.21 1028.00 1027.81 1027.65 1027.53 1027.45 1027.41
1017.86 1017.89 1018.30 1019.19 1020.58 1022.45 1024.71 1027.21 1029.77 1032.21 1034.38 1036.17 1037.51 1038.44 1038.99 1039.26 1039.36 1039.37 1039.37 1039.38 1039.41 1039.43 1039.39 1039.23 1038.93 1038.46 1037.82 1037.05 1036.19 1035.29 1034.40 1033.55 1032.79 1032.11 1031.51 1030.99 1030.53 1030.11 1029.72 1029.34 1028.97 1028.61 1028.27 1027.96 1027.68 1027.44 1027.26 1027.13 1027.05
1020.13 1020.28 1020.74 1021.57 1022.83 1024.49 1026.50 1028.74 1031.05 1033.29 1035.30 1036.99 1038.29 1039.21 1039.77 1040.07 1040.17 1040.17 1040.13 1040.08 1040.03 1039.95 1039.80 1039.54 1039.13 1038.57 1037.86 1037.04 1036.14 1035.23 1034.34 1033.52 1032.80 1032.18 1031.65 1031.19 1030.77 1030.37 1029.97 1029.55 1029.12 1028.67 1028.24 1027.82 1027.45 1027.13 1026.87 1026.69 1026.56
1022.44 1022.75 1023.28 1024.09 1025.23 1026.70 1028.45 1030.41 1032.45 1034.45 1036.27 1037.82 1039.05 1039.93 1040.50 1040.81 1040.93 1040.92 1040.85 1040.73 1040.58 1040.38 1040.11 1039.72 1039.19 1038.53 1037.74 1036.86 1035.93 1035.01 1034.15 1033.38 1032.72 1032.16 1031.69 1031.28 1030.90 1030.50 1030.08 1029.61 1029.11 1028.58 1028.05 1027.55 1027.09 1026.69 1026.38 1026.14 1025.97
Thickness
5687 5687 5685 5678 5661 5645 5648 5660 5667 5670 5672 5675 5676 5674 5673 5671 5668 5670 5672 5675 5676 5676 5675 5675 5675 5674 5674 5673 5673 5673 5673 5673 5673 5673 5673 5673 5674 5675 5677 5677 5678 5679 5680 5681 5682 5683 5683 5684 5685
5682 5681 5675 5662 5646 5638 5648 5660 5664 5670 5673 5671 5670 5671 5670 5668 5668 5668 5668 5670 5672 5672 5671 5671 5671 5670 5669 5668 5668 5668 5668 5668 5668 5668 5668 5668 5669 5670 5671 5672 5672 5673 5674 5675 5676 5677 5677 5678 5679
5678 5675 5661 5648 5640 5643 5656 5665 5665 5667 5668 5668 5664 5664 5665 5665 5664 5664 5665 5666 5667 5667 5667 5667 5667 5666 5665 5664 5663 5663 5663 5662 5662 5662 5662 5663 5663 5664 5664 5665 5666 5667 5668 5669 5669 5670 5671 5672 5673
5669 5660 5649 5640 5643 5650 5659 5666 5664 5662 5663 5663 5661 5658 5658 5660 5661 5661 5662 5662 5662 5661 5661 5662 5662 5661 5660 5659 5658 5657 5657 5657 5656 5656 5656 5657 5657 5657 5658 5659 5659 5660 5661 5662 5663 5664 5664 5665 5666
5659 5647 5638 5633 5643 5651 5655 5660 5660 5659 5659 5658 5656 5654 5653 5655 5656 5656 5656 5656 5656 5655 5655 5656 5656 5655 5654 5654 5653 5652 5651 5650 5650 5649 5649 5650 5650 5650 5651 5651 5652 5653 5654 5655 5656 5657 5657 5658 5659
5643 5636 5626 5630 5642 5649 5654 5656 5656 5655 5653 5651 5649 5648 5649 5649 5649 5650 5650 5649 5649 5649 5649 5649 5649 5649 5648 5647 5647 5646 5645 5644 5643 5643 5643 5642 5643 5643 5643 5644 5645 5646 5647 5648 5648 5649 5650 5651 5652
5635 5627 5625 5631 5636 5644 5652 5652 5650 5648 5646 5645 5646 5644 5643 5643 5643 5643 5643 5642 5642 5642 5642 5642 5642 5641 5640 5640 5639 5638 5638 5637 5636 5635 5635 5635 5635 5635 5636 5636 5637 5638 5639 5640 5641 5641 5642 5643 5644
5634 5624 5624 5625 5631 5641 5648 5647 5647 5645 5642 5641 5640 5639 5638 5638 5636 5636 5635 5634 5634 5634 5634 5634 5634 5634 5633 5632 5631 5630 5630 5629 5628 5627 5626 5626 5626 5626 5627 5628 5629 5630 5631 5631 5632 5633 5634 5635 5636
5631 5616 5619 5626 5630 5638 5641 5639 5638 5638 5634 5632 5630 5632 5632 5631 5629 5628 5626 5626 5625 5626 5626 5627 5626 5626 5625 5624 5622 5622 5621 5620 5619 5618 5617 5617 5617 5617 5618 5619 5620 5621 5622 5623 5623 5624 5625 5626 5627
5620 5613 5626 5631 5631 5633 5633 5631 5630 5628 5625 5623 5623 5622 5622 5622 5621 5621 5620 5619 5619 5618 5618 5618 5618 5617 5617 5615 5614 5613 5612 5611 5610 5609 5608 5608 5608 5608 5609 5609 5610 5611 5612 5613 5614 5615 5616 5617 5618
5615 5615 5624 5624 5625 5626 5623 5622 5621 5620 5617 5618 5619 5616 5612 5612 5613 5613 5613 5613 5612 5611 5609 5609 5609 5608 5608 5606 5605 5604 5603 5601 5600 5599 5598 5598 5598 5598 5599 5600 5601 5602 5603 5603 5604 5605 5606 5607 5609
5607 5611 5614 5616 5616 5615 5613 5612 5608 5608 5612 5615 5614 5610 5605 5604 5605 5606 5605 5604 5602 5601 5601 5600 5600 5599 5598 5597 5596 5594 5593 5592 5590 5590 5589 5589 5588 5588 5589 5589 5591 5592 5593 5593 5594 5595 5596 5598 5599
5600 5603 5604 5604 5603 5601 5600 5598 5598 5600 5603 5602 5601 5598 5597 5596 5596 5596 5596 5594 5593 5592 5592 5591 5591 5591 5589 5587 5586 5585 5583 5582 5581 5580 5580 5580 5579 5578 5579 5579 5581 5582 5583 5584 5585 5586 5587 5588 5589
5594 5593 5593 5593 5592 5591 5588 5588 5587 5593 5591 5589 5588 5587 5586 5586 5586 5584 5584 5584 5583 5583 5583 5582 5582 5582 5580 5579 5577 5575 5574 5573 5571 5571 5570 5569 5569 5568 5569 5570 5571 5572 5573 5574 5575 5576 5577 5577 5579
5583 5581 5582 5583 5582 5579 5578 5576 5579 5582 5578 5577 5577 5576 5575 5574 5573 5574 5574 5574 5574 5573 5573 5573 5573 5572 5571 5570 5568 5566 5564 5563 5562 5560 5559 5559 5559 5559 5559 5559 5561 5562 5563 5565 5566 5566 5566 5567 5568
5571 5568 5568 5575 5572 5569 5568 5568 5577 5570 5568 5566 5565 5564 5563 5562 5562 5562 5562 5562 5562 5562 5562 5563 5563 5561 5561 5561 5559 5557 5555 5554 5552 5551 5549 5549 5549 5549 5549 5549 5551 5552 5553 5554 5555 5555 5555 5555 5556
5553 5551 5557 5561 5560 5556 5554 5556 5562 5558 5557 5556 5554 5552 5551 5550 5550 5551 5552 5551 5551 5552 5552 5552 5552 5552 5551 5550 5549 5548 5546 5544 5542 5541 5539 5539 5539 5539 5539 5540 5540 5542 5543 5543 5544 5543 5544 5543 5544
5542 5541 5544 5545 5544 5541 5538 5540 5548 5545 5544 5542 5540 5538 5537 5538 5540 5541 5540 5540 5540 5541 5541 5541 5541 5541 5541 5539 5538 5537 5535 5533 5532 5532 5530 5529 5529 5530 5530 5530 5530 5531 5532 5531 5531 5531 5531 5531 5532
5532 5530 5530 5533 5531 5527 5525 5527 5534 5532 5528 5526 5524 5524 5525 5526 5528 5528 5529 5529 5529 5529 5531 5531 5531 5531 5530 5529 5528 5527 5525 5523 5522 5522 5521 5520 5520 5520 5521 5520 5520 5520 5520 5520 5519 5519 5519 5518 5519
5520 5519 5518 5518 5518 5514 5508 5512 5519 5518 5516 5515 5514 5514 5515 5515 5516 5516 5516 5516 5517 5519 5520 5521 5521 5521 5521 5521 5520 5519 5516 5513 5513 5512 5511 5511 5511 5511 5511 5511 5510 5509 5508 5508 5507 5507 5506 5505 5506
5510 5508 5508 5505 5501 5498 5496 5501 5505 5507 5505 5505 5504 5503 5503 5504 5504 5505 5506 5506 5506 5507 5509 5511 5511 5511 5511 5510 5508 5506 5503 5502 5500 5500 5501 5501 5501 5501 5501 5500 5500 5498 5498 5497 5496 5496 5496 5494 5493
5500 5502 5500 5496 5488 5484 5486 5485 5495 5493 5491 5493 5490 5488 5489 5490 5492 5494 5495 5495 5496 5497 5498 5499 5499 5499 5499 5499 5499 5498 5496 5494 5493 5491 5491 5490 5490 5491 5491 5489 5489 5488 5486 5485 5484 5484 5484 5483 5481
5489 5491 5488 5485 5479 5472 5472 5471 5481 5478 5478 5478 5474 5474 5476 5477 5479 5481 5483 5484 5484 5484 5485 5486 5487 5487 5487 5487 5488 5487 5486 5485 5483 5480 5479 5479 5479 5479 5478 5477 5477 5476 5475 5474 5473 5472 5472 5472 5471
5478 5477 5475 5468 5464 5466 5470 5465 5469 5457 5460 5462 5461 5461 5462 5464 5466 5468 5469 5470 5471 5471 5472 5473 5475 5475 5475 5475 5475 5475 5475 5473 5472 5470 5468 5467 5467 5466 5465 5465 5465 5464 5464 5462 5461 5460 5459 5459 5459
5466 5461 5458 5457 5453 5460 5461 5455 5448 5445 5444 5444 5444 5446 5448 5448 5450 5452 5454 5455 5457 5458 5459 5460 5461 5462 5463 5463 5463 5464 5463 5463 5462 5461 5459 5457 5456 5455 5454 5453 5452 5452 5451 5450 5449 5447 5447 5446 5446
5453 5453 5450 5448 5446 5448 5442 5442 5436 5433 5431 5432 5433 5432 5433 5433 5435 5436 5438 5440 5443 5445 5446 5447 5448 5449 5450 5451 5451 5451 5451 5451 5450 5450 5449 5447 5447 5446 5444 5443 5441 5440 5439 5438 5437 5436 5434 5434 5433
5444 5440 5440 5432 5428 5428 5430 5423 5424 5422 5421 5420 5419 5417 5416 5416 5418 5420 5422 5424 5427 5430 5432 5433 5434 5435 5436 5437 5438 5439 5439 5438 5438 5437 5436 5436 5435 5434 5433 5431 5430 5428 5428 5427 5426 5425 5423 5422 5421
5433 5427 5419 5422 5424 5426 5424 5415 5414 5408 5406 5404 5401 5399 5398 5400 5402 5405 5408 5410 5413 5415 5417 5419 5419 5420 5422 5423 5425 5426 5426 5426 5425 5425 5424 5424 5423 5422 5421 5420 5418 5417 5416 5415 5415 5414 5412 5410 5409
5417 5413 5409 5405 5409 5410 5406 5408 5397 5391 5387 5383 5382 5381 5379 5382 5384 5389 5393 5395 5398 5400 5402 5404 5405 5406 5407 5409 5410 5411 5412 5412 5412 5411 5411 5411 5411 5410 5409 5408 5407 5406 5405 5404 5403 5403 5401 5399 5398
5406 5401 5396 5398 5394 5388 5391 5388 5379 5373 5368 5366 5365 5365 5365 5367 5369 5372 5376 5379 5382 5384 5387 5389 5390 5392 5393 5395 5397 5398 5399 5398 5398 5398 5398 5398 5398 5398 5397 5396 5395 5394 5393 5392 5392 5391 5389 5388 5387